RADIO ROSTO (RS-15)

Last updated on Sun Dec 14 2025 00:03:11 GMT+0000 (Coordinated Universal Time)

1 23439U 94085A 25347.22365338 .00000053 00000+0 27105-2 0 9994 2 23439 64.8156 243.9682 0149692 38.4178 322.7294 11.27583379274939
UTC large
Height (km)
Speed (km/s)
/
Latitude / Longitude
Inclination (degrees)
Orbital Period (minutes)
Azimuth
Elevation
Range (km)
Doppler Factor

Next 0 passes for location: London (51.5072 / 0.1276)

Sorry there are no passes over London.